Location: Newark
(48.3831°N, 4.1956°E)
Time: 12:15:00
(UTC+00:00)

Envisat - Pass Details

Date: 18 November 2019
Orbit: 764 x 766 km, 98.1° (Epoch: 07 December)

Event Time Altitude Azimuth Distance (km) Brightness Sun altitude
Rises 04:56:37 0° 34° (NE) 3,242 6.6 -19.4°
Reaches altitude 10° 05:01:50 10° 80° (E) 2,306 6.6 -18.5°
Maximum altitude 05:02:12 10° 84° (E) 2,300 6.6 -18.5°
Drops below altitude 10° 05:02:35 10° 88° (E) 2,304 6.7 -18.4°
Sets 05:07:45 0° 134° (SE) 3,221 7.2 -17.5°
